Date String (YYYY-MM-DD hh:mm:ss) UTC,Instrument flags,Ambient pressure (hPa),Sample flow (lpm),Bypass flow (lpm),Sample temperature (°C),Ambient temperature (°C),ASC tube jacket temperature (°C),LED temperature (°C),Box temperature (°C),Sample RH (%),Span deviation,Mass concentration (μg/m³),Mass concentration (μg/m³),Mass concentration (μg/m³)
DateTimeUTC,F1_M11,P_M11,Q1_M11,Q2_M11,T1_M11,T2_M11,T3_M11,T4_M11,T5_M11,U1_M11,ZSPAN_M11,X0_M11,X2_M11,X1_M11
2023-02-10 07:00:00,,0835.6,4.99,0.00,22.0,22.3,00.0,30.8,23.9,07.4,0000.0,0007.98,0003.22,0002.49
2023-02-10 07:01:00,,0835.6,5.00,0.00,22.0,21.7,00.0,30.8,23.8,07.4,0000.0,0007.68,0003.09,0002.45
2023-02-10 07:02:00,,0835.6,5.03,0.00,21.9,21.1,00.0,30.8,23.6,07.5,0000.0,0007.22,0002.95,0002.38
2023-02-10 07:03:00,,0835.6,5.00,0.00,21.9,20.6,00.0,30.8,23.4,07.5,0000.0,0005.89,0002.86,0002.34
2023-02-10 07:04:00,,0835.6,5.02,0.00,21.8,20.2,00.0,30.8,23.3,07.6,0000.0,0005.47,0002.83,0002.30
2023-02-10 07:05:00,,0835.6,5.02,0.00,21.8,19.8,00.0,30.8,23.2,07.7,0000.0,0005.61,0002.86,0002.30
2023-02-10 07:06:00,,0835.6,5.01,0.00,21.7,19.5,00.0,30.8,23.1,07.7,0000.0,0005.63,0002.86,0002.29
2023-02-10 07:07:00,,0835.6,4.99,0.00,21.6,19.3,00.0,30.7,23.0,07.7,0000.0,0005.40,0002.91,0002.29
2023-02-10 07:08:00,,0835.6,5.03,0.00,21.6,19.9,00.0,30.7,23.1,07.7,0000.0,0004.54,0002.89,0002.28
2023-02-10 07:09:00,,0835.5,4.96,0.00,21.7,21.2,00.0,30.6,23.4,07.6,0000.0,0004.58,0002.86,0002.27
2023-02-10 07:10:00,,0835.6,5.05,0.00,21.8,22.3,00.0,30.6,23.7,07.5,0000.0,0004.74,0002.91,0002.29
2023-02-10 07:11:00,,0835.6,4.99,0.00,21.9,22.4,00.0,30.7,23.9,07.4,0000.0,0004.63,0002.87,0002.29
2023-02-10 07:12:00,,0835.5,5.01,0.00,21.9,21.7,00.0,30.7,23.7,07.4,0000.0,0004.91,0002.87,0002.30
2023-02-10 07:13:00,,0835.5,5.02,0.00,21.9,21.0,00.0,30.7,23.6,07.4,0000.0,0004.95,0002.91,0002.32
2023-02-10 07:14:00,,0835.6,4.99,0.00,21.8,20.5,00.0,30.7,23.3,07.3,0000.0,0004.96,0002.88,0002.32
2023-02-10 07:15:00,,0835.6,5.02,0.00,21.8,20.1,00.0,30.7,23.2,07.3,0000.0,0004.71,0002.81,0002.32
2023-02-10 07:16:00,,0835.6,5.00,0.00,21.7,19.7,00.0,30.7,23.1,07.3,0000.0,0004.54,0002.78,0002.33
2023-02-10 07:17:00,,0835.6,4.98,0.00,21.6,19.4,00.0,30.7,23.0,07.3,0000.0,0004.46,0002.76,0002.33
2023-02-10 07:18:00,,0835.7,5.05,0.00,21.5,19.1,00.0,30.6,22.8,07.4,0000.0,0004.23,0002.65,0002.31
2023-02-10 07:19:00,,0835.7,5.01,0.00,21.5,19.5,00.0,30.6,22.8,07.4,0000.0,0004.14,0002.64,0002.29
2023-02-10 07:20:00,,0835.7,5.01,0.00,21.5,20.8,00.0,30.5,23.2,07.3,0000.0,0004.00,0002.61,0002.28
2023-02-10 07:21:00,,0835.6,5.01,0.00,21.7,21.9,00.0,30.5,23.5,07.3,0000.0,0003.95,0002.59,0002.25
2023-02-10 07:22:00,,0835.6,4.99,0.00,21.7,21.8,00.0,30.6,23.6,07.3,0000.0,0004.00,0002.62,0002.24
2023-02-10 07:23:00,,0835.6,5.00,0.00,21.7,21.0,00.0,30.6,23.3,07.3,0000.0,0003.72,0002.64,0002.23
2023-02-10 07:24:00,,0835.6,5.02,0.00,21.6,20.5,00.0,30.6,23.2,07.3,0000.0,0003.72,0002.61,0002.20
2023-02-10 07:25:00,,0835.6,4.97,0.00,21.6,20.1,00.0,30.6,23.1,07.3,0000.0,0003.67,0002.60,0002.18
2023-02-10 07:26:00,,0835.6,4.97,0.00,21.5,19.7,00.0,30.6,23.0,07.3,0000.0,0003.74,0002.61,0002.16
2023-02-10 07:27:00,,0835.5,5.00,0.00,21.5,19.5,00.0,30.5,22.9,07.4,0000.0,0003.79,0002.59,0002.14
2023-02-10 07:28:00,,0835.5,4.98,0.00,21.4,19.4,00.0,30.5,22.9,07.4,0000.0,0003.75,0002.56,0002.12
2023-02-10 07:29:00,,0835.5,4.99,0.00,21.5,20.2,00.0,30.4,23.1,07.4,0000.0,0003.85,0002.60,0002.12
2023-02-10 07:30:00,,0835.4,5.02,0.00,21.6,21.4,00.0,30.4,23.4,07.3,0000.0,0003.85,0002.58,0002.11
2023-02-10 07:31:00,,0835.4,5.02,0.00,21.7,22.5,00.0,30.4,23.7,07.3,0000.0,0003.88,0002.57,0002.10
2023-02-10 07:32:00,,0835.3,4.98,0.00,21.8,22.4,00.0,30.5,23.8,07.2,0000.0,0003.92,0002.54,0002.10
2023-02-10 07:33:00,,0835.3,5.02,0.00,21.8,21.6,00.0,30.5,23.5,07.2,0000.0,0003.76,0002.49,0002.09
2023-02-10 07:34:00,,0835.2,5.00,0.00,21.8,21.0,00.0,30.6,23.4,07.3,0000.0,0003.68,0002.45,0002.07
2023-02-10 07:35:00,,0835.2,4.99,0.00,21.7,20.4,00.0,30.6,23.2,07.3,0000.0,0003.59,0002.43,0002.07
2023-02-10 07:36:00,,0835.2,5.02,0.00,21.6,20.0,00.0,30.6,23.1,07.3,0000.0,0003.46,0002.38,0002.06
2023-02-10 07:37:00,,0835.2,5.00,0.00,21.6,19.6,00.0,30.6,22.9,07.3,0000.0,0003.72,0002.36,0002.07
2023-02-10 07:38:00,,0835.2,4.99,0.00,21.5,19.4,00.0,30.6,22.8,07.3,0000.0,0003.83,0002.34,0002.06
2023-02-10 07:39:00,,0835.2,5.00,0.00,21.5,19.4,00.0,30.5,22.8,07.3,0000.0,0003.81,0002.34,0002.06
2023-02-10 07:40:00,,0835.2,4.99,0.00,21.5,20.6,00.0,30.5,23.1,07.3,0000.0,0003.79,0002.34,0002.07
2023-02-10 07:41:00,,0835.1,5.01,0.00,21.6,21.7,00.0,30.4,23.4,07.3,0000.0,0003.78,0002.33,0002.07
2023-02-10 07:42:00,,0835.1,4.98,0.00,21.8,22.5,00.0,30.5,23.7,07.2,0000.0,0003.77,0002.33,0002.07
2023-02-10 07:43:00,,0835.0,4.98,0.00,21.8,22.0,00.0,30.5,23.7,07.2,0000.0,0003.67,0002.36,0002.09
2023-02-10 07:44:00,,0834.9,5.03,0.00,21.8,21.3,00.0,30.6,23.4,07.2,0000.0,0003.65,0002.35,0002.08
2023-02-10 07:45:00,,0835.0,5.03,0.00,21.7,20.7,00.0,30.6,23.3,07.2,0000.0,0003.59,0002.31,0002.06
2023-02-10 07:46:00,,0834.9,5.03,0.00,21.7,20.2,00.0,30.6,23.1,07.2,0000.0,0003.55,0002.29,0002.05
2023-02-10 07:47:00,,0835.0,4.98,0.00,21.6,19.8,00.0,30.6,23.0,07.3,0000.0,0003.75,0002.33,0002.03
2023-02-10 07:48:00,,0834.9,5.01,0.00,21.5,19.4,00.0,30.5,22.8,07.3,0000.0,0003.68,0002.33,0002.00
2023-02-10 07:49:00,,0834.9,4.99,0.00,21.4,19.3,00.0,30.5,22.8,07.3,0000.0,0003.49,0002.34,0001.99
2023-02-10 07:50:00,,0834.8,5.05,0.00,21.5,20.4,00.0,30.4,23.1,07.3,0000.0,0003.51,0002.34,0001.98
2023-02-10 07:51:00,,0834.8,5.01,0.00,21.6,21.6,00.0,30.4,23.4,07.2,0000.0,0004.65,0002.33,0001.97
2023-02-10 07:52:00,,0834.8,4.99,0.00,21.7,22.0,00.0,30.5,23.6,07.2,0000.0,0004.59,0002.32,0001.95
2023-02-10 07:53:00,,0834.7,5.01,0.00,21.7,21.2,00.0,30.5,23.3,07.2,0000.0,0004.59,0002.31,0001.95
2023-02-10 07:54:00,,0834.7,5.01,0.00,21.6,20.4,00.0,30.5,23.1,07.2,0000.0,0004.43,0002.23,0001.91
2023-02-10 07:55:00,,0834.7,5.00,0.00,21.5,19.9,00.0,30.5,22.9,07.3,0000.0,0004.34,0002.20,0001.89
2023-02-10 07:56:00,,0834.7,4.97,0.00,21.5,19.5,00.0,30.5,22.8,07.3,0000.0,0004.42,0002.23,0001.88
2023-02-10 07:57:00,,0834.7,5.02,0.00,21.4,19.2,00.0,30.5,22.7,07.3,0000.0,0004.48,0002.24,0001.89
2023-02-10 07:58:00,,0834.7,4.97,0.00,21.3,19.1,00.0,30.4,22.6,07.3,0000.0,0004.42,0002.23,0001.89
2023-02-10 07:59:00,,0834.7,4.95,0.00,21.4,20.2,00.0,30.4,22.9,07.3,0000.0,0004.15,0002.22,0001.90
